Wind_Speed
4 3 4 4 4 3 3 3 5 7 8 8 8 7 9 11 11 12 12 12 12 12 12 12 12 12 12 12 13 14 14 13 13 12 12 12 12 13 13 13 12 12 12 12
5 5 6 6 4 4 4 6 7 8 7 7 9 9 10 12 12 13 13 13 13 13 12 13 13 13 13 13 14 14 14 14 13 13 12 12 13 13 13 13 13 13 13 13
8 8 7 6 6 6 6 8 8 7 7 8 9 11 12 13 13 13 13 13 13 13 13 13 14 13 14 14 14 15 14 14 13 12 13 13 13 13 13 14 13 13 14 13
9 10 9 7 7 8 7 9 8 7 7 8 10 13 13 13 12 13 14 14 14 14 14 14 13 14 15 15 15 15 14 14 13 13 13 13 13 13 13 14 14 14 14 13
12 11 10 10 11 10 9 8 7 6 8 10 10 12 12 13 13 14 15 15 15 14 13 13 14 14 15 15 15 15 13 14 14 13 13 13 13 14 14 14 14 14 13 13
12 11 10 11 11 10 9 8 8 9 11 11 9 8 11 14 16 16 16 15 16 15 14 14 14 15 15 15 16 16 15 14 14 14 15 15 14 15 15 15 14 14 14 14
11 12 13 12 10 10 8 8 9 10 11 10 8 9 12 14 16 17 17 16 16 15 15 15 15 15 15 16 16 16 16 16 15 16 16 16 15 15 15 15 15 15 15 15
11 14 13 13 12 12 10 8 9 11 13 10 7 10 14 14 16 17 17 16 16 16 16 15 15 15 16 16 16 16 17 17 17 16 16 16 16 16 16 16 16 16 16 16
14 15 12 12 12 12 11 10 9 11 11 10 8 13 15 14 15 17 18 18 17 17 17 16 16 15 16 16 17 17 17 17 18 17 17 18 17 17 17 17 17 17 18 18
15 15 13 12 12 12 11 10 9 9 10 10 10 13 15 15 15 16 19 19 18 18 17 16 16 16 17 17 17 18 18 18 18 18 18 18 18 18 18 18 18 18 18 18
17 15 13 13 14 15 14 12 11 11 10 10 13 15 15 16 17 19 19 20 20 19 18 17 17 17 17 17 18 19 19 19 19 18 18 18 18 19 19 19 19 20 20 19
17 16 16 14 15 15 14 13 11 11 13 12 13 17 18 18 19 19 19 20 20 20 19 19 18 18 18 18 18 19 19 19 19 19 18 19 20 20 20 20 19 19 20 20
18 16 15 13 15 15 14 14 13 12 13 14 15 19 20 18 19 20 20 20 21 20 19 20 20 20 19 19 19 19 20 19 19 19 20 20 21 21 22 21 20 21 21 21
20 18 18 16 15 15 15 15 14 13 14 15 17 20 21 21 21 21 20 20 20 21 21 21 21 21 21 20 20 20 20 20 20 20 21 22 22 22 22 22 22 22 22 23
20 21 20 19 18 17 18 17 15 15 16 16 18 21 23 22 21 21 21 20 20 22 22 22 22 21 21 21 21 21 22 22 22 22 22 23 23 23 23 23 23 24 24 24
22 22 22 20 19 19 19 18 16 17 19 19 20 22 23 22 22 23 22 21 22 22 23 23 22 22 23 22 23 23 23 23 23 24 24 24 24 24 24 24 24 25 25 26
22 22 22 21 19 19 20 18 18 18 19 19 20 22 22 21 22 24 24 23 23 23 23 23 24 24 24 24 24 23 23 24 24 25 25 25 25 25 25 26 26 26 26 26
23 23 22 21 21 22 20 20 19 19 20 21 22 24 24 24 25 25 25 25 25 24 24 24 24 25 25 24 24 24 25 25 25 25 25 25 26 26 26 27 27 27 27 27
24 23 23 22 22 21 19 21 21 21 21 22 22 24 24 24 25 25 25 27 26 25 24 24 25 25 25 24 25 25 26 26 26 26 26 26 27 27 28 28 28 28 28 28
24 24 23 23 22 20 20 21 21 21 23 24 24 24 24 25 26 26 26 28 26 25 25 26 26 25 25 26 26 26 26 27 27 26 26 27 27 28 28 28 28 28 28 28
24 25 24 23 22 21 22 23 22 22 24 24 24 24 25 26 27 26 26 26 26 26 26 26 25 25 26 27 27 27 27 27 27 27 27 28 28 29 29 29 29 28 28 28
24 24 24 24 23 24 24 24 23 23 24 24 25 26 26 26 27 26 26 26 26 26 26 26 26 26 27 27 27 28 28 28 28 27 27 28 28 29 29 29 29 29 28 29
26 25 25 25 26 27 25 25 25 26 26 26 26 26 26 26 26 26 25 25 26 26 27 27 26 27 27 28 28 28 28 27 27 27 27 28 28 28 28 28 28 29 29 28
27 27 26 27 28 29 28 27 27 27 27 26 26 26 26 26 26 26 26 25 26 26 27 26 27 27 28 28 27 27 28 28 27 28 28 28 28 28 27 27 28 28 27 27
28 28 28 27 28 28 28 29 28 28 27 26 26 26 26 27 27 26 27 26 26 26 27 27 27 28 29 28 27 27 28 28 28 28 28 27 27 26 27 27 27 27 27 27
29 28 28 28 28 28 28 29 29 28 27 26 26 25 25 26 26 25 25 25 26 26 26 26 27 27 27 27 27 27 28 28 28 28 28 27 27 27 27 27 27 27 27 27
Wind_Direction
186 211 259 249 251 263 295 309 304 308 319 321 324 325 325 342 340 337 340 339 342 342 340 341 341 344 348 347 346 343 342 337 335 334 331 331 330 328 326 324 321 319 317 315
227 242 259 265 261 281 310 305 292 297 314 317 323 323 329 330 331 334 337 334 335 337 336 337 338 341 343 344 344 343 340 338 333 333 332 331 330 327 324 321 318 314 313 313
231 246 250 269 289 290 284 283 282 292 307 315 322 318 319 318 323 331 335 335 331 332 333 334 336 338 339 340 340 340 340 339 335 332 332 334 332 330 327 322 320 317 313 310
231 242 251 260 264 262 265 273 281 295 305 307 305 303 303 309 321 326 332 334 331 330 331 332 334 336 336 337 338 339 340 340 338 333 331 332 333 332 330 327 323 318 313 311
231 240 245 249 255 258 260 274 295 297 299 294 288 295 305 316 318 318 326 331 331 330 331 331 333 335 335 336 337 337 337 338 337 331 329 329 328 328 328 329 328 322 318 315
229 238 245 250 257 261 276 288 298 293 286 281 293 300 300 303 304 313 320 324 326 327 329 328 330 333 334 334 333 335 335 334 334 333 332 330 329 328 328 329 329 324 321 319
247 248 250 252 256 260 268 280 294 296 294 297 297 289 289 297 301 308 314 316 321 323 323 324 327 329 331 332 332 332 331 330 329 327 327 328 329 329 330 329 328 326 323 321
251 257 256 257 257 258 256 264 279 286 290 299 295 280 287 303 305 308 311 312 313 318 319 320 322 325 327 328 329 329 328 328 327 327 328 327 326 326 327 328 327 327 325 324
237 250 258 262 262 260 254 258 274 279 286 293 285 285 298 304 308 313 312 312 310 314 319 317 319 321 323 325 326 326 325 324 323 322 324 326 323 323 323 324 325 324 322 320
238 247 247 253 255 257 259 264 264 273 285 291 287 286 294 300 304 307 309 311 309 312 313 315 317 317 319 321 322 323 322 321 321 320 321 323 322 320 321 322 323 322 321 319
236 240 245 251 252 251 257 262 258 261 262 275 288 284 287 292 298 303 305 305 307 308 308 311 312 312 314 315 317 318 318 318 319 318 319 321 322 321 320 319 321 322 322 321
237 239 242 245 253 256 254 251 259 267 273 272 275 280 285 290 294 296 300 303 303 302 303 306 307 308 312 313 314 315 315 316 318 318 317 318 318 320 320 318 317 319 321 322
233 234 242 251 254 257 260 253 252 255 262 267 268 279 283 285 290 293 297 298 300 302 303 304 305 305 307 309 311 312 314 315 316 317 317 318 317 318 318 318 316 316 317 318
240 236 235 241 250 259 261 258 256 254 256 260 263 270 275 284 291 293 294 295 297 300 301 299 298 301 304 307 309 311 313 314 315 314 315 315 315 314 314 314 314 315 315 315
241 241 242 241 245 251 258 261 261 263 264 268 269 272 278 287 294 291 293 294 296 299 300 300 299 299 303 306 306 307 309 310 312 313 313 313 312 311 311 313 313 313 313 313
243 243 244 243 247 248 254 257 254 259 264 268 272 276 279 285 290 290 292 294 296 297 297 300 302 301 303 303 304 303 304 307 309 310 311 311 310 309 309 308 311 312 311 313
242 246 248 248 251 252 253 254 255 257 265 268 271 275 279 286 289 291 293 294 295 296 296 297 300 302 302 302 302 301 302 304 307 308 309 309 308 307 306 306 307 308 309 310
247 249 250 252 250 247 249 256 259 262 265 268 272 278 281 284 288 288 290 293 294 295 296 296 297 299 300 301 300 302 303 303 304 305 307 308 307 306 305 305 306 307 306 307
249 250 250 250 255 253 255 260 262 264 268 268 270 276 281 281 283 285 288 291 292 292 292 294 295 297 299 298 299 301 303 304 304 305 306 306 306 306 305 306 306 306 306 306
249 249 249 249 251 250 254 262 266 270 271 271 272 276 279 279 282 284 287 289 290 292 292 293 294 295 296 297 298 300 302 303 303 303 304 305 306 306 306 306 305 305 305 305
250 249 248 249 250 252 254 259 266 268 270 272 275 278 280 283 283 285 286 288 289 291 292 292 294 295 295 296 298 299 301 302 303 304 304 304 305 305 305 305 304 304 305 305
250 254 252 252 249 249 256 261 263 268 271 273 277 280 283 284 284 286 288 289 288 288 289 290 291 293 295 295 296 298 300 301 301 302 304 304 304 304 304 303 303 303 302 303
248 251 252 254 254 255 254 258 265 268 270 272 277 281 283 283 283 285 287 287 285 286 288 289 290 292 293 294 296 298 300 301 300 301 303 304 304 305 304 303 303 303 303 303
251 250 249 252 253 255 258 261 264 269 270 272 276 279 279 281 283 285 286 286 285 286 286 286 289 292 293 294 294 297 299 300 301 300 301 303 304 305 306 305 305 306 307 306
244 249 251 253 255 257 260 264 266 268 270 272 275 278 279 281 282 284 283 284 285 287 286 285 288 289 290 293 295 297 299 300 300 302 304 305 306 307 308 310 310 308 308 308
242 247 252 256 259 258 260 263 266 267 268 271 275 278 279 281 283 285 284 285 285 286 286 288 290 290 292 296 297 298 298 299 302 305 306 307 308 308 308 308 309 309 307 306
Height
5919 5921 5922 5923 5923 5924 5925 5924 5924 5924 5922 5920 5918 5917 5915 5915 5913 5911 5909 5907 5906 5904 5903 5901 5900 5898 5896 5895 5893 5891 5889 5887 5885 5883 5882 5880 5879 5877 5875 5874 5873 5871 5870 5869
5920 5920 5922 5922 5923 5923 5923 5924 5924 5923 5922 5920 5918 5916 5915 5914 5913 5911 5909 5907 5906 5904 5902 5901 5899 5897 5896 5894 5892 5889 5887 5885 5883 5882 5881 5879 5878 5876 5874 5872 5871 5870 5868 5867
5920 5921 5921 5922 5923 5923 5924 5924 5922 5922 5921 5919 5918 5917 5916 5913 5912 5911 5909 5907 5905 5903 5902 5900 5898 5897 5895 5893 5891 5889 5886 5884 5882 5881 5879 5878 5876 5874 5873 5871 5869 5868 5866 5865
5918 5920 5920 5921 5923 5922 5922 5922 5921 5920 5920 5919 5919 5916 5914 5911 5910 5909 5908 5906 5905 5903 5901 5899 5898 5896 5894 5892 5890 5888 5885 5883 5881 5880 5878 5877 5875 5873 5871 5869 5867 5865 5864 5862
5917 5918 5919 5920 5921 5920 5920 5920 5919 5919 5918 5917 5916 5914 5912 5910 5908 5908 5906 5905 5904 5902 5900 5899 5897 5895 5893 5891 5889 5887 5885 5883 5881 5879 5877 5875 5873 5871 5869 5867 5865 5863 5862 5860
5913 5915 5916 5918 5918 5918 5919 5919 5918 5917 5916 5915 5915 5914 5912 5911 5908 5906 5905 5904 5903 5901 5899 5897 5895 5894 5892 5890 5888 5886 5884 5882 5880 5878 5875 5873 5871 5869 5867 5865 5864 5862 5860 5858
5912 5913 5914 5915 5916 5917 5918 5918 5918 5917 5915 5914 5914 5913 5911 5909 5907 5905 5904 5903 5901 5900 5898 5896 5894 5892 5891 5889 5886 5884 5882 5880 5878 5876 5874 5872 5870 5868 5866 5864 5862 5860 5858 5856
5911 5913 5913 5913 5914 5915 5915 5916 5917 5916 5914 5912 5912 5910 5908 5907 5907 5905 5903 5901 5899 5898 5896 5895 5893 5891 5889 5887 5885 5883 5881 5879 5877 5875 5872 5870 5868 5866 5864 5862 5860 5857 5855 5853
5909 5910 5910 5911 5911 5912 5912 5913 5914 5914 5912 5911 5910 5908 5906 5906 5904 5903 5901 5899 5897 5895 5894 5892 5890 5889 5887 5885 5883 5881 5879 5877 5875 5873 5870 5868 5866 5864 5862 5859 5857 5855 5853 5851
5905 5906 5907 5908 5909 5909 5910 5911 5911 5911 5910 5909 5909 5907 5904 5902 5901 5900 5898 5897 5894 5893 5891 5890 5889 5887 5885 5883 5881 5879 5877 5875 5873 5870 5868 5866 5863 5861 5859 5857 5855 5852 5850 5848
5901 5903 5905 5906 5906 5906 5907 5908 5908 5909 5909 5909 5908 5906 5901 5901 5900 5898 5896 5894 5893 5891 5889 5887 5886 5883 5882 5880 5879 5876 5874 5872 5870 5867 5865 5863 5861 5859 5856 5854 5852 5850 5847 5845
5897 5899 5900 5902 5902 5902 5903 5903 5905 5906 5906 5905 5905 5904 5898 5899 5897 5895 5893 5892 5890 5888 5886 5884 5882 5880 5879 5877 5875 5873 5871 5869 5867 5864 5862 5860 5858 5856 5853 5851 5849 5847 5844 5842
5892 5895 5896 5899 5901 5900 5900 5900 5901 5902 5903 5902 5901 5901 5896 5894 5894 5892 5891 5888 5886 5885 5882 5880 5879 5877 5876 5874 5872 5870 5868 5866 5864 5861 5859 5857 5854 5852 5850 5847 5845 5843 5841 5838
5888 5890 5893 5895 5896 5895 5896 5896 5897 5898 5898 5898 5897 5895 5893 5891 5890 5888 5886 5884 5883 5881 5879 5877 5875 5873 5872 5870 5868 5866 5864 5862 5860 5857 5855 5853 5851 5848 5846 5843 5841 5839 5836 5834
5884 5886 5887 5889 5890 5892 5892 5892 5893 5894 5894 5894 5893 5890 5889 5886 5886 5883 5881 5880 5879 5878 5875 5872 5868 5868 5867 5866 5864 5862 5860 5858 5856 5853 5851 5849 5846 5844 5842 5839 5837 5834 5832 5829
5879 5880 5882 5884 5885 5886 5887 5887 5889 5890 5890 5890 5888 5887 5885 5883 5881 5879 5877 5876 5875 5874 5872 5869 5865 5863 5863 5861 5859 5857 5855 5853 5851 5849 5847 5844 5842 5839 5837 5835 5832 5829 5827 5824
5874 5876 5877 5878 5880 5881 5882 5883 5884 5885 5885 5885 5883 5882 5880 5877 5876 5874 5873 5871 5870 5869 5867 5866 5863 5861 5859 5857 5855 5851 5849 5848 5846 5844 5841 5839 5837 5834 5832 5829 5827 5824 5822 5819
5869 5870 5872 5873 5875 5876 5879 5878 5879 5879 5879 5879 5878 5876 5875 5873 5871 5870 5868 5866 5865 5863 5862 5861 5859 5856 5854 5851 5850 5847 5845 5843 5841 5838 5836 5834 5831 5829 5826 5824 5821 5819 5816 5813
5863 5865 5867 5868 5869 5870 5873 5873 5873 5873 5873 5873 5872 5871 5870 5868 5866 5865 5863 5861 5860 5858 5857 5855 5853 5851 5848 5846 5844 5842 5840 5838 5835 5833 5830 5828 5826 5823 5820 5818 5815 5812 5810 5807
5858 5859 5862 5863 5864 5865 5868 5867 5867 5869 5867 5867 5866 5866 5864 5862 5861 5859 5858 5856 5854 5853 5851 5849 5848 5846 5843 5841 5839 5837 5834 5832 5830 5827 5825 5822 5820 5817 5814 5811 5809 5806 5803 5800
5852 5854 5855 5857 5858 5860 5861 5861 5863 5864 5862 5861 5860 5859 5858 5856 5855 5854 5852 5850 5849 5847 5845 5844 5842 5840 5838 5835 5833 5831 5828 5826 5824 5821 5819 5816 5813 5810 5807 5805 5802 5799 5796 5794
5846 5848 5850 5851 5852 5855 5854 5855 5856 5855 5854 5854 5854 5853 5852 5851 5849 5847 5846 5844 5843 5841 5839 5837 5835 5834 5832 5829 5827 5825 5822 5820 5818 5815 5813 5810 5807 5803 5800 5798 5795 5792 5790 5787
5840 5843 5844 5846 5847 5847 5847 5848 5848 5848 5848 5848 5847 5847 5846 5844 5843 5841 5840 5838 5837 5835 5833 5831 5828 5827 5825 5823 5821 5819 5816 5813 5811 5809 5806 5803 5800 5797 5794 5791 5788 5786 5783 5780
5833 5835 5837 5838 5839 5839 5840 5841 5841 5841 5841 5841 5841 5840 5839 5838 5836 5835 5833 5832 5830 5829 5827 5825 5823 5821 5819 5817 5815 5812 5810 5807 5804 5802 5799 5797 5794 5791 5788 5785 5782 5779 5776 5773
5826 5827 5828 5830 5832 5832 5833 5834 5834 5835 5834 5834 5834 5832 5832 5831 5830 5828 5826 5824 5823 5821 5819 5818 5817 5815 5813 5811 5809 5806 5803 5801 5798 5795 5792 5790 5787 5784 5781 5779 5776 5773 5770 5767
5819 5820 5821 5823 5824 5825 5826 5826 5827 5827 5827 5827 5826 5825 5825 5824 5823 5821 5819 5817 5816 5815 5813 5811 5810 5808 5806 5804 5802 5800 5797 5794 5792 5789 5786 5784 5781 5778 5775 5772 5769 5766 5764 5761